Regional Weather Roundup
Issued by NWS

Home | Current Version | Previous Version | Graphics & Text | Print | Product List | Glossary On
Versions: 1 2 3 4 5 6 7 8 9 10 11 12 13 14 15 16 17 18 19 20 21 22 23 24 25 26 27 28 29 30 31 32 33 34 35 36 37 38 39 40 41 42 43 44 45 46 47 48 49 50
260
ASUS45 KABQ 040701
RWRNM
NEW MEXICO REGIONAL WEATHER ROUNDUP
NATIONAL WEATHER SERVICE ALBUQUERQUE NM
1200 AM MST SUN DEC 04 2016

NOTE: "FAIR" MEANS FEW OR NO CLOUDS BELOW 12,000 FEET AGL WITH NO
       SIGNIFICANT WEATHER OR OBSTRUCTIONS TO VISION.

      THIS PRODUCT IS RELEASED AS TWO VERSIONS.  ONE VERSION NEAR
      THE TOP OF THE HOUR CONTAINING PRELIMINARY DATA FROM ALBUQUERQUE
      AND OTHER STATIONS.  A FINAL VERSION WITH ADDITIONAL DATA IS
      ISSUED ABOUT 10 MINUTES AFTER THE HOUR.

NMZ501-503-504-510>518-040800-
NORTHWEST PLATEAU/NORTHCENTRAL MOUNTAINS

CITY           SKY/WX    TMP DP  RH WIND       PRES   REMARKS
FARMINGTON     FAIR      24  13  62 W5        30.11R WCI  18
LOS ALAMOS     FAIR      31  16  54 N14       30.08S WCI  20
SANTA FE       FAIR      27  20  75 NW13      30.07S WCI  16
TAOS           FAIR      16   3  57 NE5       30.09F WCI   9
ANGEL FIRE     FAIR       9   6  87 S3        30.07F

$$
NMZ402-403-502-505>509-040800-
WESTCENTRAL MOUNTAINS/SOUTHWEST MOUNTAINS

CITY           SKY/WX    TMP DP  RH WIND       PRES   REMARKS
GALLUP         FAIR      19  16  88 CALM      30.14R
GRANTS         FAIR      22  16  77 NW8       30.15R WCI  13
SILVER CITY    FAIR      34  30  85 NW7       30.02F WCI  28

$$
NMZ407-409-411-412-040800-
SOUTHERN DESERTS

CITY           SKY/WX    TMP DP  RH WIND       PRES   REMARKS
DEMING         FAIR      38  36  92 NW5       30.03S WCI  34
LAS CRUCES     FAIR      42  32  68 N8        30.01S
HOLLOMAN AFB   FAIR      36  33  90 N6        30.05S WCI  31
T OR C         FAIR      38  28  67 N6        30.05R WCI  33

$$
NMZ519>523-040800-
CENTRAL VALLEYS/CENTRAL HIGHLANDS

CITY           SKY/WX    TMP DP  RH WIND       PRES   REMARKS
ALBUQUERQUE    FAIR      34  17  50 N10       30.10F WCI  26
DOUBLE EAGLE   FAIR      30  15  53 NW13      30.10S WCI  20
MORIARTY ARPT  FAIR      24  17  74 NW8       30.08F WCI  15
CLINES CORNERS FAIR      24  18  77 NW14      30.05S WCI  12
BELEN          FAIR      30  23  76 E5        30.12S WCI  25
SOCORRO        FAIR      33  26  75 N9        30.09R WCI  25

$$
NMZ524>526-539-540-040800-
SOUTHCENTRAL MOUNTAINS

CITY           SKY/WX    TMP DP  RH WIND       PRES   REMARKS
RUIDOSO        FAIR      32  19  59 NW12      30.05S WCI  23

$$
NMZ527>531-040800-
NORTHEAST HIGHLANDS/NORTHEAST PLAINS

CITY           SKY/WX    TMP DP  RH WIND       PRES   REMARKS
LAS VEGAS      FAIR      23  17  78 N14       30.03F WCI  11
RATON          FAIR      26  13  57 NE3       30.04F
CLAYTON        FAIR      29  25  85 N13       30.03R WCI  19

$$
NMZ532>537-040800-
EASTCENTRAL PLAINS

CITY           SKY/WX    TMP DP  RH WIND       PRES   REMARKS
TUCUMCARI      FOG       30  29  96 CALM      30.03R VSB 1/4
CANNON AFB     CLOUDY    34  34 100 NW7       30.03S WCI  28
CLOVIS AIRPORT CLOUDY    34  30  86 NW8       30.02S WCI  27

$$
NMZ028-029-538-040800-
SOUTHEAST PLAINS

CITY           SKY/WX    TMP DP  RH WIND       PRES   REMARKS
ROSWELL        FAIR      35  32  88 W3        30.04R
ARTESIA        CLOUDY    39  39 100 CALM      30.03S
CARLSBAD       CLOUDY    39  39 100 CALM      30.01F
HOBBS          CLOUDY    39  39 100 N3        30.03S FOG


$$




USA.gov is the U.S. government's official web portal to all federal, state and local government web resources and services.